Location: Elk Forest
(39.5314°N, 75.8738°W)
Time: 06:38:47
(UTC-04:00)

Daily predictions for brighter satellites

Satellite Brightness Start Highest point End
(mag) Time Altitude Azimuth Time Altitude Azimuth Time Altitude Azimuth
BREEZE-M DEB (TANK) 4.0 20:40:45 10° WNW 20:44:31 59° SSW 20:57:42 10° SE
ATLAS 3B R/B 4.5 20:45:10 10° ESE 20:47:46 12° ESE 20:50:22 10° E
Resurs 01 Rocket 4.2 20:48:03 10° SW 20:51:23 21° W 20:54:46 10° NW
APEX 4.5 20:47:40 10° N 20:51:25 35° ENE 20:56:09 10° SE
Cosmos 2228 3.9 20:49:29 10° NNE 20:53:31 33° ENE 20:57:31 10° SE
Lacrosse 5 rocket 2.5 20:50:50 10° WSW 20:54:31 45° NW 20:58:25 10° NNE
Cosmos 1025 Rocket 3.3 20:50:37 10° SSW 20:55:00 75° W 20:59:24 10° N
Cosmos 2098 Rocket 3.6 20:51:50 10° NNW 20:55:09 50° W 20:59:13 10° S
Cosmos 1743 2.7 20:51:20 10° N 20:55:11 82° E 20:59:01 10° S
Meteor 1-23 Rocket 4.3 20:50:06 10° S 20:55:36 59° E 21:01:13 10° NNE
Cosmos 2251 Rocket 3.8 20:51:33 10° SSW 20:56:52 79° WNW 21:02:15 10° NNE
Cosmos 1892 Rocket 3.6 20:58:44 10° S 21:03:10 89° WNW 21:07:40 10° N
ERS-1 Rocket 3.0 20:58:35 10° SSE 21:03:34 71° ENE 21:08:34 10° N
Cosmos 1603 4.3 20:59:12 10° SSE 21:04:13 35° ESE 21:09:15 10° NE
USA 234 4.2 20:59:55 10° E 21:05:56 40° NNE 21:11:57 10° NW
Envisat 3.6 21:02:49 10° SE 21:07:30 39° ENE 21:12:14 10° N
SJ-11-01 4.3 21:05:03 10° SSE 21:09:41 72° ENE 21:14:21 10° N
Meteor 2-9 Rocket 4.4 21:04:21 10° N 21:10:01 62° E 21:15:45 10° SSE
Cosmos 1110 Rocket 4.2 21:04:55 10° NNW 21:10:14 75° WSW 21:15:27 10° S
USA 186 3.3 21:10:42 10° SSW 21:13:17 29° W 21:15:45 10° NW
Meteor 2-4 Rocket 3.9 21:09:28 10° S 21:15:18 89° ESE 21:21:17 10° N
Abrixas rocket 2.4 21:12:11 10° NW 21:15:37 75° NNE 21:18:26 14° ESE
Okean 2 3.4 21:13:26 10° S 21:17:38 88° WNW 21:21:50 10° N
BREEZE M DEB (TANK) 2.9 21:16:59 10° WNW 21:19:54 33° N 21:21:44 10° ENE
Cosmos 2297 4.1 21:14:30 10° NNW 21:20:10 65° WSW 21:25:49 10° S
Tsikada Rocket 4.3 21:17:50 10° SSE 21:23:59 52° E 21:30:09 10° NNE
Timation 1 Rocket 4.5 21:19:12 10° NNW 21:25:11 63° ENE 21:30:11 15° SE
Cosmos 1943 4.4 21:25:39 14° SE 21:28:59 23° E 21:33:18 10° NE
YAOGAN 6 4.1 21:27:50 16° ESE 21:29:46 24° ENE 21:32:48 10° NNE
ISS -2.5 21:30:06 10° SSW 21:32:58 29° SE 21:35:51 10° ENE
PSLV R/B 3.4 21:29:30 10° WSW 21:32:58 56° SSE 21:36:28 10° E
Cosmos 2285 Rocket 4.3 21:28:53 10° NNW 21:35:10 69° WSW 21:41:27 10° S
Cosmos 1943 Rocket 4.5 21:37:09 10° NE 21:37:57 10° NE 21:38:46 10° NE
CZ-2C R/B 3.1 21:37:26 10° SW 21:39:07 18° W 21:40:49 10° NW
MetOp-A 4.4 21:35:19 17° SE 21:39:23 54° ENE 21:44:36 10° N
Cosmos 1461 2.9 21:35:19 10° NNW 21:39:37 72° ENE 21:42:09 22° SE
SPOT 5 2.6 21:36:20 16° SSE 21:39:47 69° ENE 21:44:06 10° N
Cosmos 2058 Rocket 4.2 21:37:24 10° NNW 21:41:33 42° W 21:45:39 10° SSW
Cosmos 1464 Rocket 4.4 21:39:41 10° NNW 21:45:43 63° W 21:51:47 10° S
Cosmos 1602 Rocket 3.6 21:41:46 10° S 21:46:14 85° W 21:50:44 10° N
CZ-4 SHROUD 3.3 21:46:45 22° S 21:48:39 76° WSW 21:51:50 10° NNW
H-2A R/B 3.7 21:48:11 14° E 21:50:26 18° ENE 21:53:47 10° NNE
Cosmos 1825 Rocket 4.4 21:49:41 24° SE 21:51:26 33° E 21:55:25 10° NNE
GRACE-1 4.1 21:50:42 10° N 21:53:34 69° W 21:55:07 24° SSW
Aureole 2 Rocket 4.2 21:50:01 10° SW 21:53:42 36° WNW 21:57:05 10° N
GRACE-2 4.1 21:51:08 10° N 21:54:00 69° W 21:55:33 24° SSW
Cosmos 1812 Rocket 3.5 21:53:26 10° N 21:57:50 81° E 22:00:27 24° SSE
SPOT 1/Viking Rocket 3.7 21:55:42 24° SE 21:58:43 57° ENE 22:03:46 10° N
Cosmos 1816 Rocket 4.5 21:54:30 10° S 22:00:52 78° E 22:07:12 10° N
Terra 3.4 22:00:40 17° E 22:02:21 21° ENE 22:05:52 10° NNE
Cosmos 2034 Rocket 4.5 21:58:03 10° NNW 22:04:19 61° W 22:10:30 10° S
Cosmos 1634 Rocket 4.2 21:59:41 10° N 22:05:41 51° E 22:08:55 27° SE
USA 245 4.3 22:05:43 24° SSE 22:09:33 75° ENE 22:14:52 10° N
H-2A R/B 4.0 22:06:16 10° SSW 22:09:45 25° W 22:13:19 10° NW
SeaSat 1 2.7 22:07:21 23° S 22:10:21 62° WSW 22:15:16 10° NNW
Atlas Centaur 2 3.4 22:03:33 10° WSW 22:10:45 41° S 22:15:35 22° ESE
ARGOS 3.3 22:10:34 29° SE 22:13:18 63° ENE 22:18:40 10° N
Cosmos 2369 Rocket 2.7 22:08:31 10° NNW 22:13:58 46° ENE 22:16:29 29° ESE
CZ-4C R/B 4.1 22:12:56 33° ESE 22:14:08 42° ENE 22:18:02 10° N
DEBRIS 2.9 22:11:46 10° WNW 22:15:25 35° SW 22:15:34 35° SW
CZ-4B R/B 3.6 22:13:00 10° N 22:18:06 79° WNW 22:22:53 12° SSW
NAVSTAR 52 R/B(PAM-D 4.3 22:19:24 10° W 22:23:37 62° SSW 22:23:42 62° S
NOAA 11 4.1 22:22:44 34° SSE 22:25:11 74° ENE 22:30:36 10° N
COSMOS 2455 3.1 22:21:04 10° SW 22:27:03 72° WNW 22:33:06 10° NNE
Milstar 3 Cent rocket 4.2 22:25:16 10° SW 22:27:06 11° SSW 22:27:55 11° SSW
Cosmos 2279 Rocket 4.4 22:24:16 10° N 22:30:17 47° ENE 22:32:32 34° SE
Cosmos 1953 4.0 22:31:33 10° NNE 22:34:19 20° ENE 22:34:19 20° ENE
Cosmos 1953 Rocket 3.4 22:35:33 49° S 22:36:42 79° E 22:41:08 10° N
ATLAS 3B R/B 2.9 22:29:40 10° SSW 22:37:18 70° ESE 22:44:49 10° NE
Meteor 1-22 Rocket 4.2 22:32:23 10° N 22:37:59 73° E 22:40:01 41° SSE
IGS 5A 3.9 22:43:56 43° E 22:44:10 44° ENE 22:48:08 10° N
Cosmos 1066 Rocket 4.4 22:43:48 24° SSW 22:47:19 71° W 22:53:07 10° N
USA 234 3.3 22:45:57 37° SSE 22:48:40 67° SW 22:55:13 10° NW
Cosmos 407 Rocket 3.4 22:49:26 40° S 22:51:22 83° ESE 22:56:38 10° NNE
Cosmos 1346 Rocket 3.1 22:56:00 51° WSW 22:56:35 59° W 23:00:28 10° N
DELTA 2 DEB (DPAF) 4.4 22:56:14 50° SSW 22:57:08 62° WSW 23:01:36 10° NNW
Cosmos-2242 3.4 22:54:06 10° N 22:58:21 49° ENE 22:58:21 49° ENE
SL-23 DEB 4.1 22:52:21 10° SW 23:01:53 12° ENE 23:02:12 10° ENE
Lacrosse 4 Rocket 1.2 22:59:11 80° WSW 22:59:21 83° WNW 23:03:27 10° NNE
SL-24 R/B 4.4 22:54:45 10° N 22:59:42 82° E 23:00:48 56° S
ISS -1.4 23:06:25 10° W 23:09:21 31° NNW 23:12:20 10° NE
Cosmos 1954 Rocket 3.9 23:09:47 64° SSE 23:10:22 71° ESE 23:15:40 10° NNE
Cosmos 1758 Rocket 4.2 23:10:06 43° WSW 23:11:03 52° W 23:15:20 10° N
USA 238 DEB 3.9 23:10:58 47° SE 23:12:00 50° ESE 23:18:47 10° NE
USA 238 3.9 23:11:06 46° SE 23:12:06 50° ESE 23:18:51 10° NE
Cosmos 1943 4.1 23:07:21 11° SW 23:12:39 48° WNW 23:18:09 10° NNE
Cosmos 1842 3.5 23:13:33 67° N 23:13:33 67° N 23:17:00 10° N
Meteor 1-21 4.4 23:11:19 41° SSW 23:13:25 73° W 23:19:15 10° N
CARTOSAT-1 3.6 23:14:29 67° WSW 23:14:37 67° W 23:18:56 10° NNW
Cosmos 1758 3.8 23:15:32 10° N 23:19:02 57° NNE 23:19:02 57° NNE
Spot 4 3.7 23:22:16 74° SW 23:22:32 78° WSW 23:27:20 10° NNW
Cosmos 1943 Rocket 2.2 23:17:16 10° NNW 23:22:48 66° ENE 23:23:31 59° ESE
H-2A R/B 2.4 23:28:49 48° WSW 23:29:24 51° W 23:34:18 10° NNW
Cosmos 1092 Rocket 4.0 23:33:03 56° ESE 23:33:47 60° E 23:39:59 10° NNE
Terra 2.6 23:39:33 40° WSW 23:39:48 40° W 23:44:18 10° NNW
Cosmos 1656 Rocket 4.3 23:34:30 10° N 23:39:57 44° ENE 23:40:41 42° E
Cosmos 1842 Rocket 3.9 23:37:54 10° N 23:41:34 60° NNE 23:41:34 60° NNE
Cosmos 1570 Rocket 4.0 23:38:04 10° NNW 23:43:26 70° ENE 23:43:34 70° E
Cosmos 1850 Rocket 4.0 23:46:11 70° ENE 23:46:11 70° ENE 23:51:02 10° NNE
Nadezhda 4 Rocket 4.0 23:45:00 59° SSW 23:46:19 80° W 23:52:40 10° N
CZ-4C R/B 3.7 23:54:53 22° ENE 23:54:53 22° ENE 23:57:39 10° NE
Cosmos 1655 Rocket 4.5 23:53:34 45° E 23:53:47 45° E 23:59:42 10° NNE
